{"data":{"norad_id":61606,"epoch":"2026-09-19T16:06:29.070720Z","epoch_age_seconds":89656,"freshness":"FRESH","line1":"1 61606U 24188N   26262.67116980 -.00000220  00000+0 -66607-3 0  9991","line2":"2 61606  87.8924  17.3807 0001244  90.2836 269.8434 13.10375756 95675","mean_motion":13.10375756,"eccentricity":0.0001244,"inclination_deg":87.8924,"raan_deg":17.3807,"arg_perigee_deg":90.2836,"mean_anomaly_deg":269.8434,"bstar":-0.00066607,"rev_number":9567,"period_min":109.89214302893,"perigee_km":1220.7603666834,"apogee_km":1222.6512075688,"semimajor_km":7599.8427871261,"source":"CELESTRAK","updated_at":"2026-09-20T09:00:44.800662Z"}}